Weather History for KHVR - May, 2014

Change the Weather History Date:

Thursday, May 15, 2014

  Actual Average Record
Temperature  
Mean Temperature 56 °F 54 °F  
Max Temperature 69 °F 67 °F 92 °F (1917)
Min Temperature 43 °F 40 °F 24 °F (1923)
Degree Days  
Heating Degree Days 9 12  
Month to date heating degree days 277 206  
Since 1 July heating degree days 8290 7943  
Cooling Degree Days 0 0  
Month to date cooling degree days 0 0  
Year to date cooling degree days 0 1  
Growing Degree Days 6 (Base 50)    
Moisture  
Dew Point 39 °F    
Average Humidity 59    
Maximum Humidity 82    
Minimum Humidity 36    
Precipitation  
Precipitation 0.01 in 0.05 in 1.13 in (1977)
Month to date precipitation 0.54 0.70  
Year to date precipitation 3.26 2.69  
Snow  
Snow 0.00 in 0.10 in T in (1986)
Month to date snowfall 0.0 0.8  
Since 1 July snowfall 44.4 38.0  
Snow Depth 0.00 in    
Sea Level Pressure  
Sea Level Pressure 30.08 in    
Wind  
Wind Speed 9 mph (WNW)    
Max Wind Speed 24 mph    
Max Gust Speed 29 mph    
Visibility 10 miles    
Events Rain    
T = Trace of Precipitation, MM = Missing Value Source: NWS Daily Summary

Daily Weather History Graph

Daily Weather History Graph

Search for Another Location

Airport or City:

Trip Planner

Search our weather history database for the weather conditions in past years. The results will help you decide how hot, cold, wet, or windy it might be!

Date:

Astronomy

May. 15, 2014 Rise Set
Actual Time 5:38 AM MDT 8:53 PM MDT
Civil Twilight 5:00 AM MDT 9:31 PM MDT
Nautical Twilight 4:11 AM MDT 10:20 PM MDT
Astronomical Twilight 3:08 AM MDT 11:24 PM MDT
Moon 10:04 PM MDT (5/15) 6:29 AM MDT (5/15)
Length of Visible Light 16h 30m
Length of Day
15h 14m
Full, 99% of the Moon is Illuminated
May 15
Full
May 21
Last Quarter
May 28
New
Jun 5
First Quarter
Jun 12
Full

Hourly Weather History & Observations

Time (MDT) Temp. Windchill Dew Point Humidity Pressure Visibility Wind Dir Wind Speed Gust Speed Precip Events Conditions
12:53 AM 57.0 °F - 30.9 °F 37% 30.14 in 10.0 mi SE 8.1 mph - N/A   Partly Cloudy
1:53 AM 57.0 °F - 32.0 °F 39% 30.12 in 10.0 mi SSE 5.8 mph - N/A   Overcast
2:53 AM 53.1 °F - 35.1 °F 50% 30.11 in 10.0 mi SE 3.5 mph - N/A   Mostly Cloudy
3:53 AM 51.1 °F - 36.0 °F 56% 30.10 in 10.0 mi South 3.5 mph - N/A   Mostly Cloudy
4:53 AM 46.9 °F - 37.0 °F 68% 30.09 in 10.0 mi SW 3.5 mph - N/A   Scattered Clouds
5:53 AM 43.0 °F 41.3 °F 37.0 °F 80% 30.09 in 10.0 mi ENE 3.5 mph - N/A   Clear
6:53 AM 48.0 °F - 37.9 °F 68% 30.10 in 10.0 mi Calm Calm - N/A   Scattered Clouds
7:53 AM 51.1 °F - 39.0 °F 63% 30.10 in 10.0 mi Calm Calm - N/A   Clear
8:53 AM 60.1 °F - 37.9 °F 44% 30.07 in 10.0 mi SW 16.1 mph - N/A   Clear
9:53 AM 64.0 °F - 39.0 °F 40% 30.07 in 10.0 mi WSW 15.0 mph - N/A   Clear
10:53 AM 66.0 °F - 39.0 °F 37% 30.06 in 10.0 mi West 12.7 mph - N/A   Partly Cloudy
11:53 AM 63.0 °F - 41.0 °F 45% 30.07 in 10.0 mi WNW 11.5 mph - N/A   Mostly Cloudy
1:53 PM 62.1 °F - 45.0 °F 53% 30.05 in 10.0 mi West 5.8 mph - 0.01 in Rain Light Rain
2:53 PM 66.9 °F - 42.1 °F 40% 30.04 in 10.0 mi WNW 19.6 mph - 0.00 in   Overcast
3:53 PM 64.9 °F - 42.1 °F 43% 30.06 in 10.0 mi NNW 20.7 mph 26.5 mph N/A   Overcast
4:53 PM 66.9 °F - 45.0 °F 45% 30.06 in 10.0 mi NNW 13.8 mph - N/A   Partly Cloudy
5:53 PM 66.9 °F - 42.1 °F 40% 30.06 in 10.0 mi NNW 18.4 mph 28.8 mph N/A   Clear
6:53 PM 64.9 °F - 42.1 °F 43% 30.05 in 10.0 mi NNW 16.1 mph 24.2 mph N/A   Mostly Cloudy
7:53 PM 62.1 °F - 41.0 °F 46% 30.08 in 10.0 mi NW 5.8 mph - N/A   Overcast
8:53 PM 61.0 °F - 39.0 °F 44% 30.06 in 10.0 mi North 6.9 mph - N/A   Mostly Cloudy
9:53 PM 55.9 °F - 39.0 °F 53% 30.07 in 10.0 mi North 8.1 mph - N/A   Clear
10:53 PM 48.9 °F - 39.9 °F 71% 30.09 in 10.0 mi WNW 6.9 mph - N/A   Clear
11:53 PM 46.9 °F - 37.0 °F 68% 30.12 in 10.0 mi NW 6.9 mph - N/A   Clear